Latest Coastal Weather Observations for Hillarys Point Boat Harbour

IDW60701

Issued at 12:45 pm WST Thursday 23 October 2014 (issued every 10 minutes, with the page automatically refreshed every 10 minutes)

About coastal observations | Map of coastal stations | Coastal observations for WA | Marine services | Other Formats
Station Details ID: 009265 Name: HILLARYS BOAT HARBOUR NTC AWS Lat: -31.83 Lon: 115.74 Height: 0.0 m
Data from the previous 72 hours. | See also: Recent months for locations in Western Australia
Date/Time
WST
Temp

°C
Wind Pressure Rain
since 9am
mm
Weather Cloud Vis
km
Sea
Height
m
Swell
Dir
 
Speed
knots
Gust
knots
hPa Trend Height
m
Period
s
Dir
23/12:30pm 19.6 WSW 9 13 1016.0 - - - - - - - - -
23/12:00pm 19.4 WSW 9 13 1016.0 - - - - - - - - -
23/11:30am 19.6 WSW 7 10 1016.0 - - - - - - - - -
23/11:00am 19.6 WSW 8 13 1016.1 - - - - - - - - -
23/10:30am 19.4 W 8 13 1016.1 - - - - - - - - -
23/10:00am 19.4 W 8 13 1016.0 - - - - - - - - -
23/09:30am 19.3 W 8 12 1015.8 - - - - - - - - -
23/09:00am 19.3 W 8 12 1015.5 - - - - - - - - -
23/08:30am 19.2 WSW 8 13 1015.2 - - - - - - - - -
23/08:00am 19.0 WSW 9 14 1015.0 - - - - - - - - -
23/07:30am 19.1 WSW 9 13 1014.7 - - - - - - - - -
23/07:00am 19.0 W 9 15 1014.4 - - - - - - - - -
23/06:30am 18.9 W 9 14 1014.1 - - - - - - - - -
23/06:00am 18.8 W 9 14 1013.7 - - - - - - - - -
23/05:30am 18.8 W 9 14 1013.3 - - - - - - - - -
23/05:00am 18.8 W 8 12 1013.0 - - - - - - - - -
23/04:30am 18.8 W 8 13 1012.7 - - - - - - - - -
23/04:00am 18.6 W 9 14 1012.9 - - - - - - - - -
23/03:30am 18.5 W 10 16 1013.2 - - - - - - - - -
23/03:00am 18.9 WNW 9 14 1013.4 - - - - - - - - -
23/02:30am 18.9 WNW 10 16 1013.5 - - - - - - - - -
23/02:00am 17.1 N 4 7 1013.5 - - - - - - - - -
23/01:30am 16.4 N 5 8 1013.5 - - - - - - - - -
23/01:00am 16.0 N 5 8 1013.5 - - - - - - - - -
23/12:30am 16.1 NNE 3 5 1013.7 - - - - - - - - -
23/12:00am 16.3 N 5 7 1014.3 - - - - - - - - -
 
Date/Time
WST
Temp

°C
Wind Pressure Rain
since 9am
mm
Weather Cloud Vis
km
Sea
Height
m
Swell
Dir
 
Speed
knots
Gust
knots
hPa Trend Height
m
Period
s
Dir
22/11:30pm 16.4 N 4 7 1014.5 - - - - - - - - -
22/11:00pm 16.6 NNE 3 4 1014.4 - - - - - - - - -
22/10:30pm 17.3 N 3 6 1014.2 - - - - - - - - -
22/10:00pm 17.7 NW 4 6 1014.0 - - - - - - - - -
22/09:30pm 17.4 W 7 11 1013.9 - - - - - - - - -
22/09:00pm 18.7 NNW 10 19 1014.8 - - - - - - - - -
22/08:30pm 19.6 NW 8 15 1014.3 - - - - - - - - -
22/08:00pm 19.3 WNW 8 15 1013.9 - - - - - - - - -
22/07:30pm 19.4 NW 7 12 1013.6 - - - - - - - - -
22/07:00pm 19.4 WNW 8 14 1013.5 - - - - - - - - -
22/06:30pm 19.5 WNW 10 15 1013.3 - - - - - - - - -
22/06:00pm 19.7 WNW 11 19 1013.1 - - - - - - - - -
22/05:30pm 19.8 WNW 10 17 1013.0 - - - - - - - - -
22/05:00pm 20.1 WNW 10 18 1012.8 - - - - - - - - -
22/04:30pm 20.2 WNW 10 18 1012.4 - - - - - - - - -
22/04:00pm 20.5 WNW 9 16 1012.0 - - - - - - - - -
22/03:30pm 20.4 WNW 11 20 1012.0 - - - - - - - - -
22/03:00pm 20.6 WNW 11 19 1011.9 - - - - - - - - -
22/02:30pm 20.6 NW 13 22 1011.6 - - - - - - - - -
22/02:00pm 21.1 NW 11 20 1011.5 - - - - - - - - -
22/01:30pm 21.2 NW 9 16 1011.3 - - - - - - - - -
22/01:00pm 21.7 NW 7 13 1011.4 - - - - - - - - -
22/12:30pm 22.4 WNW 8 13 1011.3 - - - - - - - - -
22/12:00pm 26.3 NNW 8 15 1010.8 - - - - - - - - -
22/11:30am 29.5 N 10 16 1011.1 - - - - - - - - -
22/11:00am 28.3 NNE 9 16 1011.4 - - - - - - - - -
22/10:30am 27.3 NE 10 17 1012.0 - - - - - - - - -
22/10:00am 26.3 NE 10 16 1012.7 - - - - - - - - -
22/09:30am 21.3 WNW 5 8 1013.6 - - - - - - - - -
22/09:00am 23.9 NNE 8 15 1013.8 - - - - - - - - -
22/08:30am 23.2 NNE 9 18 1014.0 - - - - - - - - -
22/08:00am 21.8 ENE 12 21 1013.2 - - - - - - - - -
22/07:30am 20.6 ENE 15 24 1012.3 - - - - - - - - -
22/07:00am 20.1 ENE 15 24 1012.5 - - - - - - - - -
22/06:30am 19.6 ENE 11 16 1012.6 - - - - - - - - -
22/06:00am 19.3 ENE 11 16 1012.4 - - - - - - - - -
22/05:30am 18.9 ENE 11 18 1012.4 - - - - - - - - -
22/05:00am 18.8 ENE 11 17 1012.4 - - - - - - - - -
22/04:30am 18.9 ENE 12 19 1012.5 - - - - - - - - -
22/04:00am 19.1 ENE 12 19 1012.8 - - - - - - - - -
22/03:30am 19.1 E 10 18 1013.1 - - - - - - - - -
22/03:00am 19.1 E 7 12 1013.4 - - - - - - - - -
22/02:30am 19.3 E 6 10 1013.7 - - - - - - - - -
22/02:00am 19.3 E 5 10 1014.2 - - - - - - - - -
22/01:30am 19.4 E 6 10 1014.5 - - - - - - - - -
22/01:00am 19.7 E 6 11 1014.9 - - - - - - - - -
22/12:30am 20.1 E 6 13 1015.4 - - - - - - - - -
22/12:00am 18.4 E 4 7 1015.7 - - - - - - - - -
 
Date/Time
WST
Temp

°C
Wind Pressure Rain
since 9am
mm
Weather Cloud Vis
km
Sea
Height
m
Swell
Dir
 
Speed
knots
Gust
knots
hPa Trend Height
m
Period
s
Dir
21/11:30pm 18.1 E 3 7 1016.2 - - - - - - - - -
21/11:00pm 17.8 ESE 1 3 1016.4 - - - - - - - - -
21/10:30pm 18.0 E 2 5 1016.6 - - - - - - - - -
21/10:00pm 18.5 SE 1 4 1017.3 - - - - - - - - -
21/09:30pm 18.8 SE 1 5 1017.9 - - - - - - - - -
21/09:00pm 19.1 S 3 8 1018.3 - - - - - - - - -
21/08:30pm 19.1 S 2 5 1018.7 - - - - - - - - -
21/08:00pm 18.9 SSE 4 7 1018.7 - - - - - - - - -
21/07:30pm 19.1 S 3 8 1018.9 - - - - - - - - -
21/07:00pm 18.8 S 3 7 1018.8 - - - - - - - - -
21/06:30pm 18.7 S 3 8 1018.7 - - - - - - - - -
21/06:00pm 19.0 SSW 3 9 1018.6 - - - - - - - - -
21/05:30pm 19.0 SSW 4 9 1018.6 - - - - - - - - -
21/05:00pm 19.3 SSW 3 8 1018.7 - - - - - - - - -
21/04:30pm 19.4 SSW 4 10 1018.8 - - - - - - - - -
21/04:00pm 19.1 SSW 6 11 1018.9 - - - - - - - - -
21/03:30pm 19.2 SSW 6 12 1019.0 - - - - - - - - -
21/03:00pm 19.2 SSW 5 11 1019.3 - - - - - - - - -
21/02:30pm 18.9 SSW 6 12 1019.5 - - - - - - - - -
21/02:00pm 19.1 SSW 5 11 1019.8 - - - - - - - - -
21/01:30pm 19.0 SSW 7 13 1020.2 - - - - - - - - -
21/01:00pm 19.0 SSW 7 13 1020.6 - - - - - - - - -
21/12:30pm 18.7 SW 7 12 1020.7 - - - - - - - - -
21/12:00pm 18.3 SSW 7 12 1020.6 - - - - - - - - -
21/11:30am 18.2 SSW 6 13 1020.8 - - - - - - - - -
21/11:00am 20.3 SE 2 6 1021.1 - - - - - - - - -
21/10:30am 19.4 E 3 7 1021.5 - - - - - - - - -
21/10:00am 18.3 ESE 3 7 1021.8 - - - - - - - - -
21/09:30am 18.0 SE 3 7 1022.1 - - - - - - - - -
21/09:00am 18.1 ESE 2 6 1022.0 - - - - - - - - -
21/08:30am 16.8 E 5 9 1022.1 - - - - - - - - -
21/08:00am 16.0 ENE 6 9 1022.0 - - - - - - - - -
21/07:30am 15.1 ENE 5 9 1021.8 - - - - - - - - -
21/07:00am 13.8 ENE 4 7 1021.5 - - - - - - - - -
21/06:30am 12.6 ENE 4 7 1021.3 - - - - - - - - -
21/06:00am 11.8 ENE 5 7 1021.1 - - - - - - - - -
21/05:30am 12.0 ENE 4 7 1020.8 - - - - - - - - -
21/05:00am 12.7 ENE 3 5 1020.7 - - - - - - - - -
21/04:30am 12.7 ENE 4 7 1020.4 - - - - - - - - -
21/04:00am 12.7 ENE 5 7 1020.0 - - - - - - - - -
21/03:30am 12.8 ENE 4 6 1019.8 - - - - - - - - -
21/03:00am 13.2 ENE 4 6 1019.6 - - - - - - - - -
21/02:30am 13.6 ENE 3 5 1019.7 - - - - - - - - -
21/02:00am 13.8 ENE 3 5 1019.7 - - - - - - - - -
21/01:30am 13.8 ENE 2 3 1019.8 - - - - - - - - -
21/01:00am 14.7 ENE 1 3 1019.7 - - - - - - - - -
21/12:30am 14.5 ENE 2 3 1019.8 - - - - - - - - -
21/12:00am 14.8 ENE 3 5 1020.1 - - - - - - - - -
 
Date/Time
WST
Temp

°C
Wind Pressure Rain
since 9am
mm
Weather Cloud Vis
km
Sea
Height
m
Swell
Dir
 
Speed
knots
Gust
knots
hPa Trend Height
m
Period
s
Dir
20/11:30pm 16.1 ESE 1 2 1020.0 - - - - - - - - -
20/11:00pm 16.8 SSE 3 6 1020.3 - - - - - - - - -
20/10:30pm 17.0 SSW 3 7 1020.2 - - - - - - - - -
20/10:00pm 17.2 SSW 4 9 1020.3 - - - - - - - - -
20/09:30pm 17.3 SSW 4 8 1020.4 - - - - - - - - -
20/09:00pm 17.4 SSW 4 9 1020.4 - - - - - - - - -
20/08:30pm 17.5 SSW 3 8 1020.3 - - - - - - - - -
20/08:00pm 17.6 SSW 4 9 1020.2 - - - - - - - - -
20/07:30pm 17.6 SSW 4 8 1020.0 - - - - - - - - -
20/07:00pm 17.8 SSW 6 11 1019.9 - - - - - - - - -
20/06:30pm 18.1 SSW 5 10 1019.6 - - - - - - - - -
20/06:00pm 18.1 SSW 5 10 1019.1 - - - - - - - - -
20/05:30pm 18.4 SSW 7 14 1019.0 - - - - - - - - -
20/05:00pm 18.6 SSW 6 11 1019.0 - - - - - - - - -
20/04:30pm 18.8 SW 9 15 1018.9 - - - - - - - - -
20/04:00pm 18.8 SW 10 15 1018.6 - - - - - - - - -
20/03:30pm 18.8 SW 8 12 1018.4 - - - - - - - - -
20/03:00pm 18.5 SW 7 12 1018.5 - - - - - - - - -
20/02:30pm 18.2 SW 10 13 1018.3 - - - - - - - - -
20/02:00pm 17.9 SW 9 13 1018.3 - - - - - - - - -
20/01:30pm 17.9 SW 6 8 1018.3 - - - - - - - - -
20/01:00pm 18.5 SW 8 12 1018.3 - - - - - - - - -

Other Formats:

Comma delimited format used in spreadsheet applications
http://www.bom.gov.au/fwo/IDW60701/IDW60701.95605.axf

JavaScript Object Notation format (JSON) in row-major order
http://www.bom.gov.au/fwo/IDW60701/IDW60701.95605.json